Weather in Tankovoe

Russia / Republic of Crimea     44°39′37″N   33°48′36″E
temp.,
°C
wind,
m/s
gust,
m/s
humid.,
%
clouds,
%
prec.,
mm/h
press.,
hPa
HPBL,
m
4 march, thu
thu400:00+3se117697 0.0 102922
03:00+2se127653 0.0 102822
06:00+1se22780 0.0 102722
09:00+4sse12670 0.0 102697
12:00+7sw56550 0.0 1025933
15:00+8sw68560 0.0 1022855
18:00+5sw58663 0.0 1021675
21:00+3s49771 0.0 1020304
5 march, fri
fri500:00+2s5108214 0.0 1019293
03:00+2s410858 0.0 1018242
06:00+2s488211 0.0 1016170
09:00+6s510715 0.0 1016383
12:00+11ssw812560 0.0 1015697
15:00+11ssw811620 0.0 1014666
18:00+9ssw611730 0.0 1014510
21:00+6s498712 0.0 1015231
6 march, sat
sat600:00+6s489061 0.0 1014165
03:00+6s468630 0.0 1014116
06:00+6ssw468966 0.0 1014113
09:00+7nw358660 0.0 1016365
12:00+7nnw568193 0.0 1018583
15:00+3nne688797 0.1 1020585
18:00+4n6857100 0.0 10221161
21:00+1nne5105799 0.0 1026652
7 march, sun
sun700:00−1nne39560 0.0 1028372
03:00−2ne23560 0.0 102997
06:00−2se22540 0.0 102929
09:00+1se22390 0.0 1030264
12:00+3w344055 0.0 10291637
15:00+4wnw454574 0.0 10271589
18:00+3w345285 0.0 10251246
21:000s226078 0.0 102524
8 march, mon
mon800:000s23580 0.0 102452
03:000s23620 0.0 102243
06:000s346645 0.0 1021101
09:00+2ssw465746 0.0 1020702
12:00+5sw565147 0.0 10191260
15:00+5sw665545 0.0 10181200
18:00+3sw456179 0.0 1017885
21:00+1s337173 0.0 101767